Regional Weather Roundup
Issued by NWS

Home | Current Version | Previous Version | Graphics & Text | Print | Product List | Glossary On
Versions: 1 2 3 4 5 6 7 8 9 10 11 12 13 14 15 16 17 18 19 20 21 22 23 24 25 26 27 28 29 30 31 32 33 34 35 36 37 38 39 40 41 42 43 44 45 46 47 48 49 50
000
ASUS43 KLSX 270807
RWRMO

WEATHER SUMMARY FOR MISSOURI
NATIONAL WEATHER SERVICE SPRINGFIELD MO
300 AM CDT FRI MAR 27 2015

NOTE: "FAIR" INDICATES FEW OR NO CLOUDS BELOW 12,000 FEET WITH NO
       SIGNIFICANT WEATHER AND/OR OBSTRUCTIONS TO VISIBILITY.
       CURRENT SKY AND/OR WEATHER CONDITIONS ARE NOT AVAILABLE FOR
       CHILLICOTHE AND FARMINGTON.

MOZ001>031-035>038-043-044-053-054-270900-
...NORTHERN AND WESTERN MISSOURI...

CITY           SKY/WX    TMP DP  RH WIND       PRES   REMARKS
KANSAS CTY INT CLOUDY    36  33  89 N14       30.16S WCI  27
KANSAS C DTWN  CLOUDY    39  33  79 N10       30.16S
LEE`S SUMMIT   CLOUDY    37  33  85 N14       30.15S WCI  28
ST JOSEPH      CLOUDY    36  32  85 N9        30.19S WCI  29
CHILLICOTHE      N/A     36  33  89 N7        30.17S
KIRKSVILLE     CLOUDY    34  25  69 N8        30.14S WCI  27

$$
MOZ066>068-077>081-088>096-101>105-270900-
...SOUTHWEST MISSOURI...

CITY           SKY/WX    TMP DP  RH WIND       PRES   REMARKS
SPRINGFIELD    LGT RAIN  39  35  86 NW9       30.08F
JOPLIN         CLOUDY    40  37  89 NE10      30.11S

$$
MOZ032>034-039>042-045>050-055>058-069>072-270900-
...CENTRAL MISSOURI...

CITY           SKY/WX    TMP DP  RH WIND       PRES   REMARKS
COLUMBIA       CLOUDY    37  31  78 N16       30.10S WCI  28
JEFFERSON CITY CLOUDY    40  29  64 N8        30.11R
ROLLA          CLOUDY    38  29  70 MISG      30.05R
SEDALIA        CLOUDY    39  32  76 N13       30.12S
WHITEMAN AFB   CLOUDY    38  32  78 N13       30.12R
WARRENSBURG    CLOUDY    37  32  81 N9        30.14F
OSAGE BEACH    CLOUDY    41  30  65 N7        30.08S

$$
MOZ051-052-059>065-270900-
...EAST CENTRAL MISSOURI...

CITY           SKY/WX    TMP DP  RH WIND       PRES   REMARKS
ST LOUIS INTL  CLOUDY    40  25  55 N13       30.08R
SPIRIT OF STL  CLOUDY    39  27  62 N10       30.08R
ST CHARLES     CLOUDY    37  24  59 N16       30.09R WCI  28

$$
MOZ072>076-082>087-097>100-106>115-270900-
...SOUTH CENTRAL AND SOUTHEAST MISSOURI...

CITY           SKY/WX    TMP DP  RH WIND       PRES   REMARKS
CAPE GIRARDEAU MOCLDY    33  32  96 W6        30.05R WCI  28
FARMINGTON     CLOUDY    36  30  80 CALM      30.07S
POPLAR BLUFF   MOCLDY    36  31  82 NW7       30.05R
WEST PLAINS    CLOUDY    40  29  64 MISG      30.06F

$$



USA.gov is the U.S. government's official web portal to all federal, state and local government web resources and services.